| time (UTC) | temp C | wind direction | speed KPH | gust KPH | rain 1hr cm | rain 24hr cm | rain mn cm | humidity % | barometer mb |
| 20260508011429 | 15 | 1 | 0.0 | 3.2 | 0.00 | 0.00 | 0.00 | 84 | 1014.0 |
| 20260508010930 | 15 | 1 | 0.0 | 0.0 | 0.00 | 0.00 | 0.00 | 84 | 1014.0 |
| 20260508010430 | 15 | 1 | 0.0 | 0.0 | 0.00 | 0.00 | 0.00 | 84 | 1014.0 |
| 20260508005929 | 15 | 1 | 0.0 | 0.0 | 0.00 | 0.00 | 0.00 | 84 | 1014.0 |
| 20260508005429 | 15 | 1 | 0.0 | 0.0 | 0.00 | 0.00 | 0.00 | 84 | 1014.0 |
| 20260508004932 | 15 | 1 | 0.0 | 0.0 | 0.00 | 0.00 | 0.00 | 84 | 1014.0 |
| 20260508004430 | 15 | 1 | 0.0 | 3.2 | 0.00 | 0.00 | 0.00 | 84 | 1014.0 |
| 20260508003930 | 15 | 1 | 0.0 | 0.0 | 0.00 | 0.00 | 0.00 | 84 | 1014.0 |
| 20260508003429 | 15 | 1 | 0.0 | 0.0 | 0.00 | 0.00 | 0.00 | 84 | 1014.0 |
| 20260508002929 | 15 | 1 | 0.0 | 0.0 | 0.00 | 0.00 | 0.00 | 84 | 1014.0 |
| 20260508002432 | 15 | 1 | 0.0 | 0.0 | 0.00 | 0.00 | 0.00 | 83 | 1014.0 |
| 20260508001932 | 15 | 1 | 0.0 | 0.0 | 0.00 | 0.00 | 0.00 | 83 | 1014.0 |
| 20260508001429 | 15 | 1 | 0.0 | 0.0 | 0.00 | 0.00 | 0.00 | 83 | 1014.0 |
| 20260508000929 | 15 | 1 | 0.0 | 0.0 | 0.00 | 0.00 | 0.00 | 83 | 1014.0 |
| 20260508000429 | 15 | 253 | 0.0 | 0.0 | 0.00 | 0.00 | 0.00 | 83 | 1014.0 |
| 20260507235929 | 15 | 252 | 0.0 | 0.0 | 0.00 | 0.00 | 0.00 | 83 | 1014.0 |
| 20260507235429 | 15 | 253 | 0.0 | 0.0 | 0.00 | 0.00 | 0.00 | 83 | 1014.0 |
| 20260507234930 | 15 | 252 | 0.0 | 0.0 | 0.00 | 0.00 | 0.00 | 83 | 1014.0 |
| 20260507234429 | 15 | 252 | 0.0 | 0.0 | 0.00 | 0.00 | 0.00 | 83 | 1014.0 |
| 20260507233930 | 15 | 252 | 0.0 | 0.0 | 0.00 | 0.00 | 0.00 | 84 | 1014.0 |
| 20260507233432 | 15 | 251 | 0.0 | 3.2 | 0.00 | 0.00 | 0.00 | 84 | 1014.0 |
| 20260507232929 | 15 | 258 | 0.0 | 6.4 | 0.00 | 0.00 | 0.00 | 84 | 1014.0 |
| 20260507232429 | 15 | 248 | 0.0 | 3.2 | 0.00 | 0.00 | 0.00 | 84 | 1014.0 |
| 20260507231929 | 15 | 267 | 0.0 | 3.2 | 0.00 | 0.00 | 0.00 | 84 | 1014.0 |
| 20260507231432 | 15 | 281 | 0.0 | 6.4 | 0.00 | 0.00 | 0.00 | 84 | 1015.0 |
| 20260507230929 | 15 | 302 | 0.0 | 3.2 | 0.00 | 0.00 | 0.00 | 84 | 1015.0 |
| 20260507230429 | 15 | 302 | 0.0 | 6.4 | 0.00 | 0.00 | 0.00 | 84 | 1015.0 |
| 20260507225933 | 15 | 287 | 0.0 | 3.2 | 0.00 | 0.00 | 0.00 | 84 | 1015.0 |
| 20260507225430 | 15 | 299 | 0.0 | 4.8 | 0.00 | 0.00 | 0.00 | 84 | 1015.0 |
| 20260507224929 | 15 | 299 | 0.0 | 0.0 | 0.00 | 0.00 | 0.00 | 84 | 1015.0 |
| 20260507224429 | 15 | 299 | 0.0 | 4.8 | 0.00 | 0.00 | 0.00 | 84 | 1015.0 |
| 20260507223929 | 15 | 299 | 0.0 | 0.0 | 0.00 | 0.00 | 0.00 | 84 | 1015.0 |
| 20260507223429 | 15 | 302 | 0.0 | 4.8 | 0.00 | 0.00 | 0.00 | 84 | 1015.0 |
| 20260507222929 | 15 | 301 | 0.0 | 0.0 | 0.00 | 0.00 | 0.00 | 84 | 1015.0 |
| 20260507222429 | 15 | 298 | 0.0 | 0.0 | 0.00 | 0.00 | 0.00 | 84 | 1015.0 |
| 20260507221929 | 15 | 298 | 0.0 | 0.0 | 0.00 | 0.00 | 0.00 | 85 | 1015.0 |
| 20260507221429 | 15 | 297 | 0.0 | 0.0 | 0.00 | 0.00 | 0.00 | 85 | 1015.0 |
| 20260507220929 | 15 | 297 | 0.0 | 4.8 | 0.00 | 0.00 | 0.00 | 85 | 1015.0 |
| 20260507220429 | 14 | 297 | 0.0 | 4.8 | 0.00 | 0.00 | 0.00 | 85 | 1015.0 |
| 20260507215932 | 14 | 292 | 0.0 | 0.0 | 0.00 | 0.00 | 0.00 | 85 | 1015.0 |
| 20260507215430 | 14 | 292 | 0.0 | 0.0 | 0.00 | 0.00 | 0.00 | 85 | 1015.0 |
| 20260507214929 | 14 | 287 | 0.0 | 0.0 | 0.00 | 0.00 | 0.00 | 86 | 1015.0 |
| 20260507214429 | 14 | 304 | 0.0 | 0.0 | 0.00 | 0.00 | 0.00 | 86 | 1015.0 |
| 20260507213930 | 14 | 317 | 0.0 | 6.4 | 0.00 | 0.00 | 0.00 | 86 | 1015.0 |
| 20260507213429 | 14 | 302 | 0.0 | 4.8 | 0.00 | 0.00 | 0.00 | 86 | 1015.0 |
| 20260507212929 | 14 | 297 | 0.0 | 0.0 | 0.00 | 0.00 | 0.00 | 87 | 1015.0 |
| 20260507212429 | 14 | 295 | 0.0 | 0.0 | 0.00 | 0.00 | 0.00 | 87 | 1015.0 |
| 20260507211929 | 14 | 295 | 0.0 | 6.4 | 0.00 | 0.00 | 0.00 | 87 | 1015.0 |
| 20260507211429 | 14 | 313 | 0.0 | 0.0 | 0.00 | 0.00 | 0.00 | 87 | 1015.0 |
| 20260507210929 | 14 | 313 | 0.0 | 3.2 | 0.00 | 0.00 | 0.00 | 87 | 1015.0 |
| 20260507210432 | 13 | 311 | 3.2 | 8.0 | 0.00 | 0.00 | 0.00 | 87 | 1015.0 |
| 20260507205930 | 13 | 316 | 0.0 | 9.7 | 0.00 | 0.00 | 0.00 | 86 | 1015.0 |
| 20260507205429 | 13 | 310 | 4.8 | 8.0 | 0.00 | 0.00 | 0.00 | 86 | 1015.0 |
| 20260507204929 | 14 | 300 | 4.8 | 6.4 | 0.00 | 0.00 | 0.00 | 86 | 1015.0 |
| 20260507204429 | 14 | 311 | 0.0 | 6.4 | 0.00 | 0.00 | 0.00 | 86 | 1015.0 |
| 20260507203929 | 14 | 297 | 0.0 | 8.0 | 0.00 | 0.00 | 0.00 | 86 | 1015.0 |
| 20260507203432 | 14 | 323 | 8.0 | 9.7 | 0.00 | 0.00 | 0.00 | 86 | 1015.0 |
| 20260507202929 | 14 | 302 | 3.2 | 8.0 | 0.00 | 0.00 | 0.00 | 86 | 1015.0 |
| 20260507202429 | 14 | 326 | 0.0 | 0.0 | 0.00 | 0.00 | 0.00 | 86 | 1015.0 |
| 20260507201929 | 14 | 319 | 0.0 | 0.0 | 0.00 | 0.00 | 0.00 | 85 | 1015.0 |
| 20260507201429 | 14 | 334 | 0.0 | 4.8 | 0.00 | 0.00 | 0.00 | 84 | 1015.0 |
| 20260507200929 | 14 | 302 | 0.0 | 6.4 | 0.00 | 0.00 | 0.00 | 84 | 1015.0 |
| 20260507200429 | 14 | 322 | 0.0 | 6.4 | 0.00 | 0.00 | 0.00 | 84 | 1015.0 |
| 20260507195932 | 14 | 313 | 3.2 | 6.4 | 0.00 | 0.00 | 0.00 | 84 | 1015.0 |
| 20260507195429 | 14 | 328 | 3.2 | 6.4 | 0.00 | 0.00 | 0.00 | 84 | 1015.0 |
| 20260507194932 | 15 | 322 | 0.0 | 6.4 | 0.00 | 0.00 | 0.00 | 84 | 1015.0 |
| 20260507194429 | 15 | 312 | 0.0 | 4.8 | 0.00 | 0.00 | 0.00 | 83 | 1015.0 |
| 20260507193933 | 15 | 318 | 3.2 | 4.8 | 0.00 | 0.00 | 0.00 | 83 | 1015.0 |
| 20260507193429 | 15 | 321 | 0.0 | 0.0 | 0.00 | 0.00 | 0.00 | 82 | 1015.0 |
| 20260507192930 | 15 | 321 | 0.0 | 3.2 | 0.00 | 0.00 | 0.00 | 81 | 1015.0 |
| 20260507192433 | 15 | 320 | 0.0 | 8.0 | 0.00 | 0.00 | 0.00 | 81 | 1015.0 |
| 20260507191930 | 15 | 325 | 0.0 | 6.4 | 0.00 | 0.00 | 0.00 | 80 | 1015.0 |
| 20260507191429 | 15 | 329 | 0.0 | 4.8 | 0.00 | 0.00 | 0.00 | 79 | 1014.0 |
| 20260507190929 | 15 | 2 | 0.0 | 4.8 | 0.00 | 0.00 | 0.00 | 78 | 1014.0 |
| 20260507190432 | 16 | 15 | 0.0 | 4.8 | 0.00 | 0.00 | 0.00 | 76 | 1014.0 |
| 20260507185930 | 16 | 42 | 0.0 | 0.0 | 0.00 | 0.00 | 0.00 | 74 | 1014.0 |
| 20260507185432 | 16 | 44 | 0.0 | 0.0 | 0.00 | 0.00 | 0.00 | 73 | 1014.0 |
| 20260507184929 | 16 | 46 | 0.0 | 0.0 | 0.00 | 0.00 | 0.00 | 73 | 1014.0 |
| 20260507184433 | 17 | 46 | 0.0 | 0.0 | 0.00 | 0.00 | 0.00 | 72 | 1014.0 |
| 20260507183929 | 17 | 46 | 0.0 | 0.0 | 0.00 | 0.00 | 0.00 | 72 | 1014.0 |
| 20260507183432 | 17 | 46 | 0.0 | 0.0 | 0.00 | 0.00 | 0.00 | 71 | 1014.0 |
| 20260507182929 | 17 | 74 | 0.0 | 0.0 | 0.00 | 0.00 | 0.00 | 70 | 1014.0 |
| 20260507182432 | 17 | 65 | 0.0 | 0.0 | 0.00 | 0.00 | 0.00 | 69 | 1014.0 |
| 20260507181929 | 17 | 60 | 0.0 | 0.0 | 0.00 | 0.00 | 0.00 | 68 | 1014.0 |
| 20260507181429 | 18 | 60 | 0.0 | 0.0 | 0.00 | 0.00 | 0.00 | 65 | 1014.0 |
| 20260507180930 | 18 | 60 | 0.0 | 0.0 | 0.00 | 0.00 | 0.00 | 64 | 1014.0 |
| 20260507180429 | 18 | 60 | 0.0 | 0.0 | 0.00 | 0.00 | 0.00 | 64 | 1014.0 |
| 20260507175929 | 18 | 60 | 0.0 | 0.0 | 0.00 | 0.00 | 0.00 | 64 | 1013.0 |
| 20260507175429 | 18 | 60 | 0.0 | 0.0 | 0.00 | 0.00 | 0.00 | 63 | 1013.0 |
| 20260507174929 | 19 | 60 | 0.0 | 0.0 | 0.00 | 0.00 | 0.00 | 63 | 1013.0 |
| 20260507174429 | 19 | 59 | 0.0 | 0.0 | 0.00 | 0.00 | 0.00 | 63 | 1014.0 |
| 20260507173930 | 19 | 59 | 0.0 | 0.0 | 0.00 | 0.00 | 0.00 | 62 | 1014.0 |
| 20260507173433 | 19 | 59 | 0.0 | 0.0 | 0.00 | 0.00 | 0.00 | 62 | 1014.0 |
| 20260507172930 | 19 | 59 | 0.0 | 0.0 | 0.00 | 0.00 | 0.00 | 61 | 1013.0 |
| 20260507172432 | 19 | 59 | 0.0 | 0.0 | 0.00 | 0.00 | 0.00 | 61 | 1013.0 |
| 20260507171929 | 19 | 56 | 0.0 | 0.0 | 0.00 | 0.00 | 0.00 | 62 | 1013.0 |
| 20260507171429 | 19 | 56 | 0.0 | 0.0 | 0.00 | 0.00 | 0.00 | 61 | 1014.0 |
| 20260507170929 | 19 | 55 | 0.0 | 0.0 | 0.00 | 0.00 | 0.00 | 61 | 1014.0 |
| 20260507170429 | 19 | 55 | 0.0 | 0.0 | 0.00 | 0.00 | 0.00 | 61 | 1014.0 |
| 20260507165929 | 19 | 56 | 0.0 | 0.0 | 0.00 | 0.00 | 0.00 | 61 | 1014.0 |
| 20260507165429 | 19 | 55 | 0.0 | 0.0 | 0.00 | 0.00 | 0.00 | 61 | 1014.0 |
| 20260507164929 | 20 | 40 | 0.0 | 0.0 | 0.00 | 0.00 | 0.00 | 61 | 1014.0 |
| 20260507164430 | 20 | 38 | 0.0 | 4.8 | 0.00 | 0.00 | 0.00 | 62 | 1014.0 |
| 20260507163929 | 20 | 73 | 0.0 | 0.0 | 0.00 | 0.00 | 0.00 | 62 | 1014.0 |
| 20260507163432 | 19 | 81 | 0.0 | 0.0 | 0.00 | 0.00 | 0.00 | 62 | 1014.0 |
| 20260507162932 | 19 | 117 | 0.0 | 0.0 | 0.00 | 0.00 | 0.00 | 62 | 1014.0 |
| 20260507162429 | 19 | 92 | 0.0 | 0.0 | 0.00 | 0.00 | 0.00 | 61 | 1014.0 |
| 20260507161932 | 19 | 110 | 0.0 | 6.4 | 0.00 | 0.00 | 0.00 | 62 | 1014.0 |
| 20260507161432 | 19 | 103 | 0.0 | 0.0 | 0.00 | 0.00 | 0.00 | 62 | 1014.0 |
| 20260507160929 | 20 | 112 | 0.0 | 0.0 | 0.00 | 0.00 | 0.00 | 62 | 1014.0 |
| 20260507160429 | 20 | 110 | 0.0 | 0.0 | 0.00 | 0.00 | 0.00 | 61 | 1014.0 |
| 20260507155933 | 20 | 90 | 0.0 | 6.4 | 0.00 | 0.00 | 0.00 | 61 | 1014.0 |
| 20260507155432 | 20 | 107 | 0.0 | 0.0 | 0.00 | 0.00 | 0.00 | 61 | 1014.0 |
| 20260507154933 | 20 | 85 | 0.0 | 9.7 | 0.00 | 0.00 | 0.00 | 61 | 1014.0 |
| 20260507154432 | 20 | 107 | 4.8 | 9.7 | 0.00 | 0.00 | 0.00 | 60 | 1014.0 |
| 20260507153929 | 20 | 110 | 3.2 | 8.0 | 0.00 | 0.00 | 0.00 | 60 | 1014.0 |
| 20260507153429 | 20 | 87 | 0.0 | 12.9 | 0.00 | 0.00 | 0.00 | 60 | 1014.0 |
| 20260507152929 | 20 | 87 | 0.0 | 8.0 | 0.00 | 0.00 | 0.00 | 60 | 1014.0 |
| 20260507152429 | 20 | 101 | 3.2 | 11.3 | 0.00 | 0.00 | 0.00 | 59 | 1014.0 |
| 20260507151929 | 20 | 82 | 6.4 | 12.9 | 0.00 | 0.00 | 0.00 | 58 | 1014.0 |
| 20260507151429 | 21 | 52 | 6.4 | 12.9 | 0.00 | 0.00 | 0.00 | 57 | 1014.0 |
| 20260507150929 | 21 | 63 | 4.8 | 12.9 | 0.00 | 0.00 | 0.00 | 57 | 1014.0 |
| 20260507150430 | 21 | 56 | 9.7 | 12.9 | 0.00 | 0.00 | 0.00 | 59 | 1014.0 |
| 20260507145929 | 20 | 79 | 11.3 | 14.5 | 0.00 | 0.00 | 0.00 | 59 | 1014.0 |
| 20260507145429 | 20 | 36 | 4.8 | 12.9 | 0.00 | 0.00 | 0.00 | 59 | 1014.0 |
| 20260507144929 | 20 | 48 | 9.7 | 12.9 | 0.00 | 0.00 | 0.00 | 60 | 1014.0 |
| 20260507144429 | 20 | 57 | 6.4 | 11.3 | 0.00 | 0.00 | 0.00 | 60 | 1014.0 |
| 20260507143929 | 20 | 48 | 9.7 | 12.9 | 0.00 | 0.00 | 0.00 | 59 | 1014.0 |
| 20260507143429 | 20 | 103 | 4.8 | 12.9 | 0.00 | 0.00 | 0.00 | 59 | 1014.0 |
| 20260507142928 | 20 | 86 | 4.8 | 12.9 | 0.00 | 0.00 | 0.00 | 59 | 1014.0 |
| 20260507142429 | 21 | 68 | 11.3 | 12.9 | 0.00 | 0.00 | 0.00 | 59 | 1014.0 |
| 20260507141929 | 21 | 89 | 4.8 | 12.9 | 0.00 | 0.00 | 0.00 | 59 | 1014.0 |
| 20260507141431 | 21 | 71 | 8.0 | 16.1 | 0.00 | 0.00 | 0.00 | 60 | 1014.0 |
| 20260507140929 | 21 | 88 | 3.2 | 12.9 | 0.00 | 0.00 | 0.00 | 61 | 1014.0 |
| 20260507140428 | 20 | 65 | 3.2 | 12.9 | 0.00 | 0.00 | 0.00 | 62 | 1014.0 |
| 20260507135929 | 20 | 72 | 0.0 | 12.9 | 0.00 | 0.00 | 0.00 | 61 | 1014.0 |
| 20260507135428 | 20 | 89 | 6.4 | 11.3 | 0.00 | 0.00 | 0.00 | 61 | 1014.0 |
| 20260507134929 | 20 | 72 | 3.2 | 12.9 | 0.00 | 0.00 | 0.00 | 61 | 1014.0 |
| 20260507134429 | 20 | 93 | 0.0 | 9.7 | 0.00 | 0.00 | 0.00 | 61 | 1014.0 |
| 20260507133929 | 21 | 84 | 3.2 | 12.9 | 0.00 | 0.00 | 0.00 | 60 | 1014.0 |
| 20260507133431 | 21 | 78 | 6.4 | 12.9 | 0.00 | 0.00 | 0.00 | 60 | 1014.0 |
| 20260507132928 | 21 | 64 | 11.3 | 12.9 | 0.00 | 0.00 | 0.00 | 60 | 1014.0 |
| 20260507132431 | 21 | 77 | 11.3 | 19.3 | 0.00 | 0.00 | 0.00 | 60 | 1014.0 |
| 20260507131928 | 21 | 91 | 11.3 | 16.1 | 0.00 | 0.00 | 0.00 | 60 | 1014.0 |
| 20260507131431 | 21 | 67 | 8.0 | 16.1 | 0.00 | 0.00 | 0.00 | 59 | 1014.0 |
| 20260507130928 | 21 | 114 | 11.3 | 14.5 | 0.00 | 0.00 | 0.00 | 58 | 1014.0 |
| 20260507130429 | 21 | 97 | 6.4 | 16.1 | 0.00 | 0.00 | 0.00 | 58 | 1014.0 |
| 20260507125929 | 21 | 85 | 12.9 | 12.9 | 0.00 | 0.00 | 0.00 | 58 | 1014.0 |
| 20260507125432 | 21 | 82 | 8.0 | 16.1 | 0.00 | 0.00 | 0.00 | 57 | 1014.0 |
| 20260507124928 | 21 | 47 | 6.4 | 16.1 | 0.00 | 0.00 | 0.00 | 56 | 1014.0 |
| 20260507124428 | 21 | 103 | 9.7 | 12.9 | 0.00 | 0.00 | 0.00 | 56 | 1014.0 |
| 20260507123928 | 21 | 127 | 8.0 | 12.9 | 0.00 | 0.00 | 0.00 | 55 | 1014.0 |
| 20260507123429 | 21 | 90 | 11.3 | 16.1 | 0.00 | 0.00 | 0.00 | 56 | 1014.0 |
| 20260507122928 | 21 | 111 | 6.4 | 14.5 | 0.00 | 0.00 | 0.00 | 58 | 1014.0 |
| 20260507122429 | 21 | 82 | 9.7 | 16.1 | 0.00 | 0.00 | 0.00 | 58 | 1014.0 |
| 20260507121928 | 21 | 78 | 6.4 | 12.9 | 0.00 | 0.00 | 0.00 | 58 | 1014.0 |
| 20260507121428 | 21 | 104 | 8.0 | 12.9 | 0.00 | 0.00 | 0.00 | 59 | 1014.0 |
| 20260507120931 | 21 | 100 | 6.4 | 17.7 | 0.00 | 0.00 | 0.00 | 60 | 1014.0 |
| 20260507120431 | 21 | 115 | 6.4 | 14.5 | 0.00 | 0.00 | 0.00 | 59 | 1014.0 |
| 20260507115928 | 21 | 116 | 11.3 | 16.1 | 0.00 | 0.00 | 0.00 | 59 | 1014.0 |
| 20260507115428 | 21 | 94 | 9.7 | 12.9 | 0.00 | 0.00 | 0.00 | 57 | 1014.0 |
| 20260507114929 | 21 | 97 | 4.8 | 16.1 | 0.00 | 0.00 | 0.00 | 58 | 1014.0 |
| 20260507114428 | 21 | 121 | 11.3 | 19.3 | 0.00 | 0.00 | 0.00 | 58 | 1014.0 |
| 20260507113928 | 21 | 114 | 11.3 | 16.1 | 0.00 | 0.00 | 0.00 | 59 | 1014.0 |
| 20260507113431 | 21 | 89 | 6.4 | 16.1 | 0.00 | 0.00 | 0.00 | 59 | 1014.0 |
| 20260507112928 | 21 | 89 | 9.7 | 16.1 | 0.00 | 0.00 | 0.00 | 60 | 1014.0 |
| 20260507112429 | 21 | 76 | 12.9 | 16.1 | 0.00 | 0.00 | 0.00 | 60 | 1014.0 |
| 20260507111928 | 21 | 116 | 11.3 | 16.1 | 0.00 | 0.00 | 0.00 | 59 | 1014.0 |
| 20260507111429 | 21 | 96 | 4.8 | 12.9 | 0.00 | 0.00 | 0.00 | 61 | 1014.0 |
| 20260507110932 | 21 | 65 | 4.8 | 12.9 | 0.00 | 0.00 | 0.00 | 63 | 1014.0 |
| 20260507110431 | 21 | 110 | 0.0 | 12.9 | 0.00 | 0.00 | 0.00 | 63 | 1014.0 |
| 20260507105929 | 21 | 72 | 0.0 | 11.3 | 0.00 | 0.00 | 0.00 | 63 | 1014.0 |
| 20260507105431 | 21 | 58 | 9.7 | 12.9 | 0.00 | 0.00 | 0.00 | 63 | 1014.0 |
| 20260507104929 | 21 | 50 | 9.7 | 14.5 | 0.00 | 0.00 | 0.00 | 63 | 1014.0 |
| 20260507104428 | 21 | 96 | 9.7 | 12.9 | 0.00 | 0.00 | 0.00 | 63 | 1014.0 |
| 20260507103929 | 21 | 101 | 11.3 | 16.1 | 0.00 | 0.00 | 0.00 | 62 | 1014.0 |
| 20260507103432 | 21 | 88 | 4.8 | 12.9 | 0.00 | 0.00 | 0.00 | 62 | 1014.0 |
| 20260507102928 | 21 | 87 | 9.7 | 12.9 | 0.00 | 0.00 | 0.00 | 63 | 1014.0 |
| 20260507102431 | 21 | 47 | 12.9 | 12.9 | 0.00 | 0.00 | 0.00 | 63 | 1014.0 |
| 20260507101928 | 21 | 108 | 9.7 | 12.9 | 0.00 | 0.00 | 0.00 | 62 | 1014.0 |
| 20260507101428 | 21 | 32 | 6.4 | 12.9 | 0.00 | 0.00 | 0.00 | 62 | 1014.0 |
| 20260507100928 | 21 | 50 | 8.0 | 16.1 | 0.00 | 0.00 | 0.00 | 61 | 1014.0 |
| 20260507100429 | 21 | 89 | 6.4 | 17.7 | 0.00 | 0.00 | 0.00 | 62 | 1014.0 |
| 20260507095931 | 21 | 111 | 3.2 | 9.7 | 0.00 | 0.00 | 0.00 | 63 | 1014.0 |
| 20260507095428 | 21 | 108 | 8.0 | 16.1 | 0.00 | 0.00 | 0.00 | 63 | 1014.0 |
| 20260507094928 | 21 | 76 | 11.3 | 16.1 | 0.00 | 0.00 | 0.00 | 62 | 1014.0 |
| 20260507094428 | 21 | 70 | 8.0 | 12.9 | 0.00 | 0.00 | 0.00 | 65 | 1014.0 |
| 20260507093932 | 21 | 120 | 3.2 | 12.9 | 0.00 | 0.00 | 0.00 | 65 | 1014.0 |
| 20260507093428 | 21 | 127 | 9.7 | 14.5 | 0.00 | 0.00 | 0.00 | 65 | 1014.0 |
| 20260507092928 | 21 | 114 | 3.2 | 12.9 | 0.00 | 0.00 | 0.00 | 67 | 1014.0 |
| 20260507092428 | 20 | 76 | 0.0 | 4.8 | 0.00 | 0.00 | 0.00 | 68 | 1014.0 |
| 20260507091931 | 20 | 64 | 0.0 | 11.3 | 0.00 | 0.00 | 0.00 | 68 | 1014.0 |
| 20260507091431 | 20 | 27 | 3.2 | 11.3 | 0.00 | 0.00 | 0.00 | 68 | 1014.0 |
| 20260507090928 | 20 | 61 | 4.8 | 12.9 | 0.00 | 0.00 | 0.00 | 68 | 1014.0 |
| 20260507090428 | 20 | 120 | 0.0 | 8.0 | 0.00 | 0.00 | 0.00 | 68 | 1014.0 |
| 20260507085928 | 20 | 95 | 0.0 | 9.7 | 0.00 | 0.00 | 0.00 | 67 | 1014.0 |
| 20260507085428 | 21 | 90 | 0.0 | 12.9 | 0.00 | 0.00 | 0.00 | 67 | 1014.0 |
| 20260507084931 | 21 | 70 | 11.3 | 12.9 | 0.00 | 0.00 | 0.00 | 68 | 1014.0 |
| 20260507084428 | 21 | 48 | 3.2 | 9.7 | 0.00 | 0.00 | 0.00 | 70 | 1014.0 |
| 20260507083928 | 20 | 62 | 0.0 | 8.0 | 0.00 | 0.00 | 0.00 | 70 | 1014.0 |
| 20260507083431 | 20 | 89 | 6.4 | 8.0 | 0.00 | 0.00 | 0.00 | 69 | 1014.0 |
| 20260507082928 | 20 | 128 | 0.0 | 0.0 | 0.00 | 0.00 | 0.00 | 70 | 1014.0 |
| 20260507082429 | 20 | 112 | 4.8 | 9.7 | 0.00 | 0.00 | 0.00 | 69 | 1014.0 |
| 20260507081928 | 20 | 115 | 0.0 | 8.0 | 0.00 | 0.00 | 0.00 | 68 | 1014.0 |
| 20260507081431 | 20 | 131 | 0.0 | 8.0 | 0.00 | 0.00 | 0.00 | 70 | 1014.0 |
| 20260507080931 | 20 | 71 | 3.2 | 12.9 | 0.00 | 0.00 | 0.00 | 72 | 1014.0 |
| 20260507080429 | 19 | 111 | 0.0 | 0.0 | 0.00 | 0.00 | 0.00 | 72 | 1014.0 |
| 20260507075928 | 19 | 75 | 0.0 | 0.0 | 0.00 | 0.00 | 0.00 | 73 | 1014.0 |
| 20260507075428 | 19 | 75 | 0.0 | 0.0 | 0.00 | 0.00 | 0.00 | 75 | 1014.0 |
| 20260507074928 | 19 | 100 | 0.0 | 4.8 | 0.00 | 0.00 | 0.00 | 75 | 1014.0 |
| 20260507074428 | 18 | 172 | 0.0 | 0.0 | 0.00 | 0.00 | 0.00 | 74 | 1014.0 |
| 20260507073931 | 18 | 187 | 0.0 | 0.0 | 0.00 | 0.00 | 0.00 | 73 | 1014.0 |
| 20260507073429 | 18 | 187 | 0.0 | 0.0 | 0.00 | 0.00 | 0.00 | 73 | 1014.0 |
| 20260507072928 | 18 | 110 | 0.0 | 0.0 | 0.00 | 0.00 | 0.00 | 74 | 1014.0 |
| 20260507072428 | 18 | 109 | 0.0 | 0.0 | 0.00 | 0.00 | 0.00 | 77 | 1014.0 |
| 20260507071928 | 18 | 97 | 0.0 | 0.0 | 0.00 | 0.00 | 0.00 | 77 | 1014.0 |
| 20260507071428 | 18 | 218 | 0.0 | 0.0 | 0.00 | 0.00 | 0.00 | 77 | 1014.0 |
| 20260507070928 | 18 | 218 | 0.0 | 0.0 | 0.00 | 0.00 | 0.00 | 77 | 1014.0 |
| 20260507070428 | 18 | 218 | 0.0 | 0.0 | 0.00 | 0.00 | 0.00 | 76 | 1014.0 |
| 20260507065928 | 17 | 218 | 0.0 | 0.0 | 0.00 | 0.00 | 0.00 | 77 | 1014.0 |
| 20260507065431 | 17 | 218 | 0.0 | 0.0 | 0.00 | 0.00 | 0.00 | 78 | 1014.0 |
| 20260507064928 | 17 | 218 | 0.0 | 0.0 | 0.00 | 0.00 | 0.00 | 80 | 1014.0 |
| 20260507064428 | 17 | 218 | 0.0 | 0.0 | 0.00 | 0.00 | 0.00 | 80 | 1014.0 |
| 20260507063928 | 17 | 218 | 0.0 | 0.0 | 0.00 | 0.00 | 0.00 | 81 | 1014.0 |
| 20260507063428 | 17 | 216 | 0.0 | 0.0 | 0.00 | 0.00 | 0.00 | 82 | 1014.0 |
| 20260507062928 | 17 | 269 | 0.0 | 0.0 | 0.00 | 0.00 | 0.00 | 83 | 1014.0 |
| 20260507062428 | 16 | 271 | 0.0 | 0.0 | 0.00 | 0.00 | 0.00 | 83 | 1014.0 |
| 20260507061928 | 16 | 269 | 0.0 | 0.0 | 0.00 | 0.00 | 0.00 | 84 | 1014.0 |
| 20260507061428 | 16 | 267 | 3.2 | 4.8 | 0.00 | 0.00 | 0.00 | 84 | 1014.0 |
| 20260507060928 | 16 | 256 | 0.0 | 4.8 | 0.00 | 0.00 | 0.00 | 85 | 1014.0 |
| 20260507060431 | 16 | 265 | 6.4 | 8.0 | 0.00 | 0.00 | 0.00 | 86 | 1014.0 |
| 20260507055928 | 16 | 231 | 0.0 | 0.0 | 0.00 | 0.00 | 0.00 | 87 | 1014.0 |
| 20260507055429 | 16 | 254 | 0.0 | 3.2 | 0.00 | 0.00 | 0.00 | 87 | 1014.0 |
| 20260507054928 | 16 | 261 | 3.2 | 6.4 | 0.00 | 0.00 | 0.00 | 88 | 1014.0 |
| 20260507054428 | 15 | 270 | 0.0 | 3.2 | 0.00 | 0.00 | 0.00 | 88 | 1014.0 |
| 20260507053931 | 15 | 306 | 0.0 | 4.8 | 0.00 | 0.00 | 0.00 | 88 | 1014.0 |
| 20260507053428 | 15 | 310 | 0.0 | 4.8 | 0.00 | 0.00 | 0.00 | 88 | 1014.0 |
| 20260507052928 | 15 | 310 | 0.0 | 4.8 | 0.00 | 0.00 | 0.00 | 88 | 1014.0 |
| 20260507052428 | 15 | 310 | 0.0 | 0.0 | 0.00 | 0.00 | 0.00 | 88 | 1014.0 |
| 20260507051928 | 15 | 310 | 0.0 | 0.0 | 0.00 | 0.00 | 0.00 | 88 | 1014.0 |
| 20260507051431 | 15 | 310 | 0.0 | 4.8 | 0.00 | 0.00 | 0.00 | 88 | 1013.0 |
| 20260507050928 | 15 | 310 | 0.0 | 6.4 | 0.00 | 0.00 | 0.00 | 88 | 1013.0 |
| 20260507050428 | 15 | 308 | 0.0 | 4.8 | 0.00 | 0.00 | 0.00 | 88 | 1013.0 |
| 20260507045931 | 15 | 306 | 0.0 | 3.2 | 0.00 | 0.00 | 0.00 | 88 | 1013.0 |
| 20260507045428 | 15 | 305 | 0.0 | 0.0 | 0.00 | 0.00 | 0.00 | 88 | 1013.0 |
| 20260507044928 | 15 | 305 | 0.0 | 0.0 | 0.00 | 0.00 | 0.00 | 88 | 1013.0 |
| 20260507044431 | 15 | 305 | 0.0 | 0.0 | 0.00 | 0.00 | 0.00 | 88 | 1013.0 |
| 20260507043931 | 15 | 305 | 0.0 | 0.0 | 0.00 | 0.00 | 0.00 | 88 | 1013.0 |
| 20260507043428 | 15 | 310 | 0.0 | 6.4 | 0.00 | 0.00 | 0.00 | 88 | 1013.0 |
| 20260507042929 | 15 | 310 | 0.0 | 4.8 | 0.00 | 0.00 | 0.00 | 88 | 1013.0 |
| 20260507042428 | 15 | 310 | 0.0 | 0.0 | 0.00 | 0.00 | 0.00 | 88 | 1013.0 |
| 20260507041929 | 15 | 310 | 0.0 | 0.0 | 0.00 | 0.00 | 0.00 | 88 | 1013.0 |
| 20260507041428 | 15 | 310 | 0.0 | 3.2 | 0.00 | 0.00 | 0.00 | 88 | 1013.0 |
| 20260507040932 | 15 | 310 | 0.0 | 6.4 | 0.00 | 0.00 | 0.00 | 88 | 1013.0 |
| 20260507040428 | 15 | 307 | 0.0 | 3.2 | 0.00 | 0.00 | 0.00 | 88 | 1013.0 |
| 20260507035928 | 15 | 309 | 0.0 | 3.2 | 0.00 | 0.00 | 0.00 | 88 | 1013.0 |
| 20260507035429 | 15 | 309 | 0.0 | 4.8 | 0.00 | 0.00 | 0.00 | 88 | 1013.0 |
| 20260507034928 | 15 | 309 | 3.2 | 4.8 | 0.00 | 0.00 | 0.00 | 88 | 1013.0 |
| 20260507034428 | 14 | 308 | 0.0 | 3.2 | 0.00 | 0.00 | 0.00 | 88 | 1013.0 |
| 20260507033927 | 14 | 309 | 0.0 | 0.0 | 0.00 | 0.00 | 0.00 | 88 | 1013.0 |
| 20260507033428 | 14 | 309 | 0.0 | 0.0 | 0.00 | 0.00 | 0.00 | 88 | 1013.0 |
| 20260507032928 | 14 | 309 | 0.0 | 0.0 | 0.00 | 0.00 | 0.00 | 88 | 1013.0 |
| 20260507032428 | 14 | 308 | 0.0 | 0.0 | 0.00 | 0.00 | 0.00 | 88 | 1013.0 |
| 20260507031928 | 15 | 308 | 0.0 | 0.0 | 0.00 | 0.00 | 0.00 | 88 | 1013.0 |
| 20260507031431 | 15 | 308 | 0.0 | 3.2 | 0.00 | 0.00 | 0.00 | 88 | 1011.9 |
| 20260507030928 | 15 | 308 | 0.0 | 0.0 | 0.00 | 0.00 | 0.00 | 88 | 1011.9 |
| 20260507030431 | 14 | 308 | 0.0 | 0.0 | 0.00 | 0.00 | 0.00 | 88 | 1011.9 |
| 20260507025927 | 14 | 310 | 0.0 | 6.4 | 0.00 | 0.00 | 0.00 | 88 | 1011.9 |
| 20260507025431 | 14 | 300 | 0.0 | 0.0 | 0.00 | 0.00 | 0.00 | 88 | 1011.9 |
| 20260507024928 | 14 | 300 | 0.0 | 0.0 | 0.00 | 0.00 | 0.00 | 88 | 1011.9 |
| 20260507024428 | 14 | 300 | 0.0 | 0.0 | 0.00 | 0.00 | 0.00 | 88 | 1011.9 |
| 20260507023929 | 14 | 300 | 0.0 | 4.8 | 0.00 | 0.00 | 0.00 | 88 | 1011.9 |
| 20260507023431 | 15 | 298 | 0.0 | 4.8 | 0.00 | 0.00 | 0.00 | 88 | 1011.9 |
| 20260507022928 | 15 | 303 | 0.0 | 0.0 | 0.00 | 0.00 | 0.00 | 89 | 1011.9 |
| 20260507022427 | 15 | 295 | 0.0 | 0.0 | 0.00 | 0.00 | 0.00 | 89 | 1011.9 |
| 20260507021927 | 15 | 295 | 0.0 | 0.0 | 0.00 | 0.00 | 0.00 | 89 | 1011.9 |
| 20260507021428 | 15 | 295 | 0.0 | 0.0 | 0.00 | 0.00 | 0.00 | 89 | 1011.9 |
| 20260507020930 | 15 | 295 | 0.0 | 0.0 | 0.00 | 0.00 | 0.00 | 88 | 1011.9 |
| 20260507020428 | 15 | 295 | 0.0 | 0.0 | 0.00 | 0.00 | 0.00 | 89 | 1011.9 |
| 20260507015928 | 15 | 295 | 0.0 | 0.0 | 0.00 | 0.00 | 0.00 | 89 | 1010.9 |
| 20260507015427 | 15 | 295 | 0.0 | 4.8 | 0.00 | 0.00 | 0.00 | 89 | 1010.9 |
| 20260507014928 | 15 | 305 | 0.0 | 4.8 | 0.00 | 0.00 | 0.00 | 89 | 1010.9 |
| 20260507014428 | 15 | 305 | 0.0 | 0.0 | 0.00 | 0.00 | 0.00 | 89 | 1010.9 |
| 20260507013928 | 15 | 305 | 0.0 | 0.0 | 0.00 | 0.00 | 0.00 | 89 | 1010.9 |
| 20260507013430 | 15 | 303 | 0.0 | 0.0 | 0.00 | 0.00 | 0.00 | 89 | 1010.9 |
| 20260507012927 | 15 | 303 | 0.0 | 0.0 | 0.00 | 0.00 | 0.00 | 89 | 1011.9 |
| 20260507012431 | 15 | 303 | 0.0 | 0.0 | 0.00 | 0.00 | 0.00 | 89 | 1011.9 |
| 20260507011927 | 15 | 312 | 0.0 | 6.4 | 0.00 | 0.00 | 0.00 | 89 | 1011.9 |